| time (UTC) | temp F | wind direction | speed MPH | gust MPH | rain 1hr in | rain 24hr in | rain mn in | humidity % | barometer mb |
| 20260906181354 | 90 | 292 | 1.0 | 5.0 | 0.00 | 0.00 | 0.00 | 35 | 1019.5 |
| 20260906180854 | 90 | 300 | 0.0 | 3.0 | 0.00 | 0.00 | 0.00 | 34 | 1019.4 |
| 20260906180355 | 91 | 303 | 1.0 | 5.0 | 0.00 | 0.00 | 0.00 | 33 | 1019.4 |
| 20260906175852 | 91 | 279 | 1.0 | 5.0 | 0.00 | 0.00 | 0.00 | 33 | 1019.4 |
| 20260906175352 | 91 | 300 | 1.0 | 2.0 | 0.00 | 0.00 | 0.00 | 32 | 1019.5 |
| 20260906174852 | 91 | 293 | 0.0 | 1.0 | 0.00 | 0.00 | 0.00 | 33 | 1019.4 |
| 20260906174352 | 92 | 292 | 0.0 | 2.0 | 0.00 | 0.00 | 0.00 | 31 | 1019.4 |
| 20260906173853 | 93 | 300 | 1.0 | 4.0 | 0.00 | 0.00 | 0.00 | 30 | 1019.2 |
| 20260906173352 | 93 | 289 | 1.0 | 4.0 | 0.00 | 0.00 | 0.00 | 29 | 1019.2 |
| 20260906172853 | 94 | 288 | 1.0 | 4.0 | 0.00 | 0.00 | 0.00 | 29 | 1019.1 |
| 20260906172352 | 94 | 293 | 1.0 | 7.0 | 0.00 | 0.00 | 0.00 | 28 | 1019.1 |
| 20260906172201 | 94 | 293 | 2.0 | 7.0 | 0.00 | 0.00 | 0.00 | 28 | 1019.1 |
| 20260906171352 | 95 | 286 | 1.0 | 5.0 | 0.00 | 0.00 | 0.00 | 28 | 1018.9 |
| 20260906170851 | 95 | 276 | 2.0 | 4.0 | 0.00 | 0.00 | 0.00 | 28 | 1018.9 |
| 20260906170707 | 95 | 292 | 1.0 | 4.0 | 0.00 | 0.00 | 0.00 | 28 | 1018.8 |
| 20260906170204 | 96 | 286 | 0.0 | 4.0 | 0.00 | 0.00 | 0.00 | 29 | 1018.7 |
| 20260906165352 | 96 | 305 | 0.0 | 4.0 | 0.00 | 0.00 | 0.00 | 29 | 1018.8 |
| 20260906164853 | 96 | 296 | 1.0 | 4.0 | 0.00 | 0.00 | 0.00 | 29 | 1018.7 |
| 20260906164351 | 96 | 285 | 1.0 | 4.0 | 0.00 | 0.00 | 0.00 | 29 | 1018.7 |
| 20260906164327 | 96 | 306 | 1.0 | 5.0 | 0.00 | 0.00 | 0.00 | 29 | 1018.7 |
| 20260906164321 | 96 | 313 | 1.0 | 4.0 | 0.00 | 0.00 | 0.00 | 29 | 1018.7 |
| 20260906162851 | 96 | 271 | 2.0 | 5.0 | 0.00 | 0.00 | 0.00 | 28 | 1018.7 |
| 20260906162351 | 96 | 288 | 2.0 | 6.0 | 0.00 | 0.00 | 0.00 | 28 | 1018.7 |
| 20260906161851 | 96 | 274 | 2.0 | 6.0 | 0.00 | 0.00 | 0.00 | 28 | 1018.7 |
| 20260906161351 | 96 | 302 | 2.0 | 9.0 | 0.00 | 0.00 | 0.00 | 28 | 1018.6 |
| 20260906160852 | 96 | 286 | 3.0 | 9.0 | 0.00 | 0.00 | 0.00 | 28 | 1018.5 |
| 20260906160350 | 96 | 313 | 1.0 | 7.0 | 0.00 | 0.00 | 0.00 | 30 | 1018.4 |
| 20260906155852 | 96 | 302 | 2.0 | 6.0 | 0.00 | 0.00 | 0.00 | 31 | 1018.5 |
| 20260906155349 | 95 | 305 | 0.0 | 4.0 | 0.00 | 0.00 | 0.00 | 32 | 1018.5 |
| 20260906155334 | 95 | 357 | 2.0 | 9.0 | 0.00 | 0.00 | 0.00 | 31 | 1018.4 |
| 20260906155327 | 95 | 316 | 1.0 | 9.0 | 0.00 | 0.00 | 0.00 | 31 | 1018.4 |
| 20260906153849 | 95 | 309 | 0.0 | 0.0 | 0.00 | 0.00 | 0.00 | 34 | 1018.4 |
| 20260906153350 | 95 | 309 | 0.0 | 0.0 | 0.00 | 0.00 | 0.00 | 35 | 1018.3 |
| 20260906152851 | 95 | 309 | 0.0 | 0.0 | 0.00 | 0.00 | 0.00 | 34 | 1018.3 |
| 20260906152351 | 95 | 309 | 0.0 | 0.0 | 0.00 | 0.00 | 0.00 | 34 | 1018.4 |
| 20260906151850 | 96 | 309 | 0.0 | 0.0 | 0.00 | 0.00 | 0.00 | 34 | 1018.3 |
| 20260906151349 | 96 | 309 | 0.0 | 0.0 | 0.00 | 0.00 | 0.00 | 34 | 1018.3 |
| 20260906150848 | 96 | 309 | 0.0 | 0.0 | 0.00 | 0.00 | 0.00 | 35 | 1018.4 |
| 20260906150349 | 96 | 309 | 0.0 | 0.0 | 0.00 | 0.00 | 0.00 | 34 | 1018.4 |
| 20260906145849 | 96 | 309 | 0.0 | 3.0 | 0.00 | 0.00 | 0.00 | 34 | 1018.4 |
| 20260906145346 | 96 | 309 | 1.0 | 3.0 | 0.00 | 0.00 | 0.00 | 33 | 1018.3 |
| 20260906145018 | 96 | 272 | 0.0 | 0.0 | 0.00 | 0.00 | 0.00 | 34 | 1018.4 |
| 20260906144946 | 96 | 272 | 0.0 | 0.0 | 0.00 | 0.00 | 0.00 | 32 | 1018.3 |
| 20260906143849 | 96 | 272 | 0.0 | 0.0 | 0.00 | 0.00 | 0.00 | 33 | 1018.3 |
| 20260906143348 | 96 | 274 | 0.0 | 1.0 | 0.00 | 0.00 | 0.00 | 33 | 1018.3 |
| 20260906142848 | 96 | 274 | 0.0 | 2.0 | 0.00 | 0.00 | 0.00 | 34 | 1018.3 |
| 20260906142348 | 96 | 274 | 0.0 | 2.0 | 0.00 | 0.00 | 0.00 | 33 | 1018.3 |
| 20260906141847 | 95 | 289 | 0.0 | 1.0 | 0.00 | 0.00 | 0.00 | 34 | 1018.3 |
| 20260906141348 | 95 | 288 | 0.0 | 2.0 | 0.00 | 0.00 | 0.00 | 34 | 1018.3 |
| 20260906141158 | 95 | 288 | 0.0 | 2.0 | 0.00 | 0.00 | 0.00 | 34 | 1018.3 |
| 20260906140348 | 95 | 288 | 1.0 | 2.0 | 0.00 | 0.00 | 0.00 | 35 | 1018.3 |
| 20260906135847 | 95 | 286 | 0.0 | 1.0 | 0.00 | 0.00 | 0.00 | 33 | 1018.3 |
| 20260906135347 | 95 | 286 | 0.0 | 3.0 | 0.00 | 0.00 | 0.00 | 36 | 1018.3 |
| 20260906134846 | 95 | 286 | 0.0 | 3.0 | 0.00 | 0.00 | 0.00 | 34 | 1018.2 |
| 20260906134346 | 96 | 289 | 1.0 | 3.0 | 0.00 | 0.00 | 0.00 | 33 | 1018.3 |
| 20260906134156 | 96 | 282 | 0.0 | 0.0 | 0.00 | 0.00 | 0.00 | 33 | 1018.3 |
| 20260906133825 | 97 | 313 | 0.0 | 2.0 | 0.00 | 0.00 | 0.00 | 33 | 1018.2 |
| 20260906133818 | 96 | 313 | 0.0 | 0.0 | 0.00 | 0.00 | 0.00 | 34 | 1018.3 |
| 20260906132345 | 97 | 314 | 0.0 | 2.0 | 0.00 | 0.00 | 0.00 | 32 | 1018.2 |
| 20260906131846 | 97 | 274 | 0.0 | 2.0 | 0.00 | 0.00 | 0.00 | 34 | 1018.2 |
| 20260906131359 | 97 | 327 | 0.0 | 1.0 | 0.00 | 0.00 | 0.00 | 33 | 1018.3 |
| 20260906130845 | 97 | 345 | 0.0 | 1.0 | 0.00 | 0.00 | 0.00 | 33 | 1018.2 |
| 20260906130658 | 97 | 345 | 0.0 | 1.0 | 0.00 | 0.00 | 0.00 | 33 | 1018.3 |
| 20260906125845 | 97 | 83 | 0.0 | 1.0 | 0.00 | 0.00 | 0.00 | 35 | 1018.2 |
| 20260906125346 | 96 | 83 | 0.0 | 1.0 | 0.00 | 0.00 | 0.00 | 33 | 1018.3 |
| 20260906124845 | 97 | 110 | 0.0 | 4.0 | 0.00 | 0.00 | 0.00 | 33 | 1018.3 |
| 20260906124348 | 97 | 86 | 0.0 | 4.0 | 0.00 | 0.00 | 0.00 | 33 | 1018.4 |
| 20260906123845 | 97 | 104 | 0.0 | 2.0 | 0.00 | 0.00 | 0.00 | 34 | 1018.4 |
| 20260906123703 | 96 | 120 | 0.0 | 4.0 | 0.00 | 0.00 | 0.00 | 35 | 1018.5 |
| 20260906123156 | 96 | 130 | 1.0 | 4.0 | 0.00 | 0.00 | 0.00 | 33 | 1018.4 |
| 20260906122344 | 96 | 110 | 2.0 | 4.0 | 0.00 | 0.00 | 0.00 | 33 | 1018.4 |
| 20260906121846 | 96 | 83 | 2.0 | 5.0 | 0.00 | 0.00 | 0.00 | 34 | 1018.4 |
| 20260906121346 | 97 | 93 | 2.0 | 5.0 | 0.00 | 0.00 | 0.00 | 34 | 1018.5 |
| 20260906120847 | 97 | 226 | 0.0 | 4.0 | 0.00 | 0.00 | 0.00 | 34 | 1018.5 |
| 20260906120346 | 96 | 72 | 2.0 | 4.0 | 0.00 | 0.00 | 0.00 | 35 | 1018.6 |
| 20260906115845 | 96 | 262 | 0.0 | 3.0 | 0.00 | 0.00 | 0.00 | 34 | 1018.6 |
| 20260906115342 | 96 | 293 | 1.0 | 3.0 | 0.00 | 0.00 | 0.00 | 35 | 1018.7 |
| 20260906114845 | 96 | 104 | 0.0 | 6.0 | 0.00 | 0.00 | 0.00 | 37 | 1018.7 |
| 20260906114344 | 95 | 111 | 0.0 | 6.0 | 0.00 | 0.00 | 0.00 | 38 | 1018.8 |
| 20260906113843 | 94 | 103 | 1.0 | 5.0 | 0.00 | 0.00 | 0.00 | 37 | 1018.8 |
| 20260906113344 | 94 | 21 | 0.0 | 5.0 | 0.00 | 0.00 | 0.00 | 37 | 1018.9 |
| 20260906112845 | 94 | 120 | 1.0 | 4.0 | 0.00 | 0.00 | 0.00 | 37 | 1018.9 |
| 20260906112343 | 94 | 257 | 0.0 | 4.0 | 0.00 | 0.00 | 0.00 | 37 | 1018.9 |
| 20260906112148 | 94 | 113 | 1.0 | 4.0 | 0.00 | 0.00 | 0.00 | 39 | 1019.0 |
| 20260906111817 | 93 | 114 | 1.0 | 4.0 | 0.00 | 0.00 | 0.00 | 39 | 1019.1 |
| 20260906111809 | 94 | 63 | 0.0 | 3.0 | 0.00 | 0.00 | 0.00 | 39 | 1019.0 |
| 20260906110654 | 93 | 73 | 0.0 | 5.0 | 0.00 | 0.00 | 0.00 | 41 | 1019.1 |
| 20260906105842 | 92 | 100 | 3.0 | 5.0 | 0.00 | 0.00 | 0.00 | 41 | 1019.1 |
| 20260906105453 | 91 | 110 | 3.0 | 4.0 | 0.00 | 0.00 | 0.00 | 43 | 1019.2 |
| 20260906105432 | 92 | 80 | 0.0 | 4.0 | 0.00 | 0.00 | 0.00 | 41 | 1019.2 |
| 20260906104341 | 92 | 96 | 3.0 | 4.0 | 0.00 | 0.00 | 0.00 | 41 | 1019.4 |
| 20260906103842 | 91 | 123 | 1.0 | 4.0 | 0.00 | 0.00 | 0.00 | 42 | 1019.4 |
| 20260906103340 | 91 | 96 | 1.0 | 7.0 | 0.00 | 0.00 | 0.00 | 43 | 1019.5 |
| 20260906102854 | 91 | 109 | 2.0 | 7.0 | 0.00 | 0.00 | 0.00 | 42 | 1019.5 |
| 20260906102341 | 91 | 111 | 3.0 | 6.0 | 0.00 | 0.00 | 0.00 | 43 | 1019.5 |
| 20260906101842 | 92 | 92 | 2.0 | 5.0 | 0.00 | 0.00 | 0.00 | 42 | 1019.5 |
| 20260906101343 | 92 | 97 | 1.0 | 3.0 | 0.00 | 0.00 | 0.00 | 42 | 1019.6 |
| 20260906100850 | 91 | 62 | 0.0 | 3.0 | 0.00 | 0.00 | 0.00 | 45 | 1019.6 |
| 20260906100656 | 91 | 92 | 2.0 | 3.0 | 0.00 | 0.00 | 0.00 | 43 | 1019.7 |
| 20260906095839 | 90 | 110 | 0.0 | 2.0 | 0.00 | 0.00 | 0.00 | 45 | 1019.8 |
| 20260906095340 | 89 | 110 | 0.0 | 1.0 | 0.00 | 0.00 | 0.00 | 45 | 1019.8 |
| 20260906094841 | 88 | 110 | 0.0 | 2.0 | 0.00 | 0.00 | 0.00 | 47 | 1019.7 |
| 20260906094343 | 87 | 114 | 0.0 | 2.0 | 0.00 | 0.00 | 0.00 | 49 | 1019.8 |
| 20260906093840 | 87 | 118 | 0.0 | 3.0 | 0.00 | 0.00 | 0.00 | 49 | 1019.9 |
| 20260906093340 | 87 | 99 | 1.0 | 3.0 | 0.00 | 0.00 | 0.00 | 48 | 1019.9 |
| 20260906092840 | 86 | 87 | 0.0 | 2.0 | 0.00 | 0.00 | 0.00 | 49 | 1020.0 |
| 20260906092341 | 85 | 87 | 1.0 | 2.0 | 0.00 | 0.00 | 0.00 | 50 | 1020.0 |
| 20260906091840 | 84 | 87 | 0.0 | 2.0 | 0.00 | 0.00 | 0.00 | 51 | 1019.9 |
| 20260906091339 | 84 | 106 | 2.0 | 4.0 | 0.00 | 0.00 | 0.00 | 52 | 1020.0 |
| 20260906090842 | 82 | 107 | 1.0 | 4.0 | 0.00 | 0.00 | 0.00 | 55 | 1020.2 |
| 20260906090340 | 82 | 106 | 1.0 | 3.0 | 0.00 | 0.00 | 0.00 | 55 | 1020.2 |
| 20260906085842 | 82 | 90 | 0.0 | 3.0 | 0.00 | 0.00 | 0.00 | 56 | 1020.2 |
| 20260906085654 | 80 | 86 | 0.0 | 3.0 | 0.00 | 0.00 | 0.00 | 58 | 1020.3 |
| 20260906084840 | 80 | 86 | 1.0 | 5.0 | 0.00 | 0.00 | 0.00 | 59 | 1020.3 |
| 20260906084339 | 79 | 83 | 3.0 | 5.0 | 0.00 | 0.00 | 0.00 | 58 | 1020.3 |
| 20260906083840 | 79 | 107 | 2.0 | 4.0 | 0.00 | 0.00 | 0.00 | 60 | 1020.2 |
| 20260906083340 | 79 | 103 | 2.0 | 3.0 | 0.00 | 0.00 | 0.00 | 59 | 1020.2 |
| 20260906082852 | 79 | 116 | 0.0 | 3.0 | 0.00 | 0.00 | 0.00 | 61 | 1020.2 |
| 20260906082340 | 78 | 94 | 2.0 | 3.0 | 0.00 | 0.00 | 0.00 | 62 | 1020.2 |
| 20260906082155 | 77 | 73 | 2.0 | 2.0 | 0.00 | 0.00 | 0.00 | 63 | 1020.3 |
| 20260906081656 | 77 | 102 | 1.0 | 2.0 | 0.00 | 0.00 | 0.00 | 65 | 1020.0 |
| 20260906081151 | 76 | 73 | 1.0 | 3.0 | 0.00 | 0.00 | 0.00 | 66 | 1020.3 |
| 20260906080648 | 76 | 79 | 0.0 | 3.0 | 0.00 | 0.00 | 0.00 | 68 | 1020.3 |
| 20260906075839 | 75 | 85 | 0.0 | 1.0 | 0.00 | 0.00 | 0.00 | 69 | 1020.2 |
| 20260906075339 | 75 | 85 | 0.0 | 2.0 | 0.00 | 0.00 | 0.00 | 67 | 1020.3 |
| 20260906074839 | 76 | 85 | 0.0 | 2.0 | 0.00 | 0.00 | 0.00 | 66 | 1020.3 |
| 20260906074643 | 76 | 49 | 0.0 | 3.0 | 0.00 | 0.00 | 0.00 | 67 | 1020.2 |
| 20260906073839 | 76 | 76 | 1.0 | 4.0 | 0.00 | 0.00 | 0.00 | 66 | 1020.3 |
| 20260906073649 | 75 | 93 | 2.0 | 4.0 | 0.00 | 0.00 | 0.00 | 66 | 1020.2 |
| 20260906072839 | 75 | 76 | 0.0 | 3.0 | 0.00 | 0.00 | 0.00 | 68 | 1020.3 |
| 20260906072647 | 75 | 83 | 1.0 | 3.0 | 0.00 | 0.00 | 0.00 | 68 | 1020.3 |
| 20260906071840 | 73 | 90 | 0.0 | 2.0 | 0.00 | 0.00 | 0.00 | 69 | 1020.3 |
| 20260906071337 | 72 | 97 | 0.0 | 2.0 | 0.00 | 0.00 | 0.00 | 72 | 1020.2 |
| 20260906070837 | 72 | 90 | 1.0 | 2.0 | 0.00 | 0.00 | 0.00 | 71 | 1020.2 |
| 20260906070649 | 71 | 92 | 1.0 | 2.0 | 0.00 | 0.00 | 0.00 | 74 | 1020.2 |
| 20260906065837 | 70 | 106 | 0.0 | 2.0 | 0.00 | 0.00 | 0.00 | 74 | 1020.0 |
| 20260906065649 | 70 | 106 | 0.0 | 2.0 | 0.00 | 0.00 | 0.00 | 75 | 1020.2 |
| 20260906064837 | 70 | 100 | 0.0 | 2.0 | 0.00 | 0.00 | 0.00 | 75 | 1019.9 |
| 20260906064656 | 70 | 96 | 0.0 | 0.0 | 0.00 | 0.00 | 0.00 | 75 | 1020.2 |
| 20260906064149 | 70 | 290 | 0.0 | 0.0 | 0.00 | 0.00 | 0.00 | 74 | 1020.0 |
| 20260906063337 | 70 | 290 | 0.0 | 0.0 | 0.00 | 0.00 | 0.00 | 76 | 1020.2 |
| 20260906062836 | 69 | 288 | 0.0 | 0.0 | 0.00 | 0.00 | 0.00 | 78 | 1020.3 |
| 20260906062336 | 68 | 288 | 0.0 | 0.0 | 0.00 | 0.00 | 0.00 | 78 | 1020.0 |
| 20260906061837 | 67 | 288 | 0.0 | 1.0 | 0.00 | 0.00 | 0.00 | 78 | 1019.9 |
| 20260906061337 | 66 | 288 | 0.0 | 2.0 | 0.00 | 0.00 | 0.00 | 79 | 1019.9 |
| 20260906060837 | 66 | 288 | 1.0 | 2.0 | 0.00 | 0.00 | 0.00 | 80 | 1019.9 |
| 20260906060336 | 65 | 289 | 1.0 | 2.0 | 0.00 | 0.00 | 0.00 | 82 | 1019.9 |
| 20260906060151 | 65 | 289 | 1.0 | 2.0 | 0.00 | 0.00 | 0.00 | 83 | 1020.0 |
| 20260906055335 | 64 | 283 | 1.0 | 2.0 | 0.00 | 0.00 | 0.00 | 83 | 1020.0 |
| 20260906054837 | 64 | 283 | 2.0 | 4.0 | 0.00 | 0.00 | 0.00 | 83 | 1019.9 |
| 20260906054335 | 64 | 283 | 2.0 | 4.0 | 0.00 | 0.00 | 0.00 | 82 | 1019.7 |
| 20260906053835 | 64 | 290 | 2.0 | 3.0 | 0.00 | 0.00 | 0.00 | 83 | 1019.6 |
| 20260906053335 | 64 | 275 | 1.0 | 1.0 | 0.00 | 0.00 | 0.00 | 82 | 1019.2 |
| 20260906052835 | 64 | 275 | 0.0 | 1.0 | 0.00 | 0.00 | 0.00 | 83 | 1019.1 |
| 20260906052644 | 64 | 275 | 0.0 | 1.0 | 0.00 | 0.00 | 0.00 | 82 | 1019.1 |
| 20260906051834 | 64 | 275 | 0.0 | 0.0 | 0.00 | 0.00 | 0.00 | 83 | 1019.0 |
| 20260906051337 | 64 | 275 | 0.0 | 0.0 | 0.00 | 0.00 | 0.00 | 83 | 1018.9 |
| 20260906051142 | 64 | 275 | 0.0 | 0.0 | 0.00 | 0.00 | 0.00 | 82 | 1019.1 |
| 20260906050334 | 64 | 275 | 0.0 | 0.0 | 0.00 | 0.00 | 0.00 | 82 | 1019.0 |
| 20260906050141 | 64 | 275 | 0.0 | 1.0 | 0.00 | 0.00 | 0.00 | 81 | 1018.9 |
| 20260906045335 | 64 | 275 | 0.0 | 1.0 | 0.00 | 0.00 | 0.00 | 80 | 1018.9 |
| 20260906044835 | 63 | 275 | 0.0 | 1.0 | 0.00 | 0.00 | 0.00 | 79 | 1018.9 |
| 20260906044335 | 64 | 275 | 1.0 | 1.0 | 0.00 | 0.00 | 0.00 | 79 | 1018.9 |
| 20260906043838 | 64 | 275 | 1.0 | 1.0 | 0.00 | 0.00 | 0.00 | 78 | 1019.0 |
| 20260906043334 | 64 | 275 | 1.0 | 1.0 | 0.00 | 0.00 | 0.00 | 79 | 1018.9 |
| 20260906042833 | 64 | 275 | 0.0 | 1.0 | 0.00 | 0.00 | 0.00 | 78 | 1018.9 |
| 20260906042335 | 64 | 275 | 0.0 | 1.0 | 0.00 | 0.00 | 0.00 | 78 | 1019.0 |
| 20260906041833 | 64 | 275 | 0.0 | 0.0 | 0.00 | 0.00 | 0.00 | 79 | 1019.0 |
| 20260906041651 | 64 | 275 | 0.0 | 0.0 | 0.00 | 0.00 | 0.00 | 77 | 1018.9 |
| 20260906040834 | 64 | 275 | 0.0 | 1.0 | 0.00 | 0.00 | 0.00 | 77 | 1019.0 |
| 20260906040349 | 64 | 275 | 0.0 | 1.0 | 0.00 | 0.00 | 0.00 | 77 | 1019.0 |
| 20260906035833 | 64 | 275 | 0.0 | 1.0 | 0.00 | 0.00 | 0.00 | 77 | 1019.0 |
| 20260906035639 | 64 | 275 | 1.0 | 1.0 | 0.00 | 0.00 | 0.00 | 77 | 1018.9 |
| 20260906035147 | 64 | 275 | 0.0 | 1.0 | 0.00 | 0.00 | 0.00 | 77 | 1019.0 |
| 20260906034334 | 64 | 275 | 0.0 | 1.0 | 0.00 | 0.00 | 0.00 | 77 | 1019.0 |
| 20260906033833 | 64 | 275 | 1.0 | 1.0 | 0.00 | 0.00 | 0.00 | 76 | 1019.0 |
| 20260906033645 | 64 | 275 | 0.0 | 1.0 | 0.00 | 0.00 | 0.00 | 76 | 1019.1 |
| 20260906032837 | 64 | 275 | 0.0 | 1.0 | 0.00 | 0.00 | 0.00 | 76 | 1019.2 |
| 20260906032638 | 65 | 275 | 0.0 | 0.0 | 0.00 | 0.00 | 0.00 | 76 | 1019.2 |
| 20260906031834 | 65 | 275 | 0.0 | 0.0 | 0.00 | 0.00 | 0.00 | 75 | 1019.1 |
| 20260906031333 | 65 | 275 | 0.0 | 0.0 | 0.00 | 0.00 | 0.00 | 74 | 1019.2 |
| 20260906030834 | 65 | 275 | 0.0 | 0.0 | 0.00 | 0.00 | 0.00 | 74 | 1019.3 |
| 20260906030332 | 65 | 275 | 0.0 | 1.0 | 0.00 | 0.00 | 0.00 | 74 | 1019.4 |
| 20260906025832 | 65 | 275 | 0.0 | 1.0 | 0.00 | 0.00 | 0.00 | 73 | 1019.3 |
| 20260906025333 | 65 | 275 | 0.0 | 0.0 | 0.00 | 0.00 | 0.00 | 73 | 1019.4 |
| 20260906025139 | 65 | 275 | 0.0 | 0.0 | 0.00 | 0.00 | 0.00 | 72 | 1019.3 |
| 20260906024332 | 66 | 275 | 0.0 | 0.0 | 0.00 | 0.00 | 0.00 | 71 | 1019.4 |
| 20260906024142 | 67 | 275 | 0.0 | 0.0 | 0.00 | 0.00 | 0.00 | 71 | 1019.5 |
| 20260906023502 | 67 | 275 | 0.0 | 1.0 | 0.00 | 0.00 | 0.00 | 69 | 1019.5 |
| 20260906023429 | 67 | 275 | 0.0 | 1.0 | 0.00 | 0.00 | 0.00 | 70 | 1019.5 |
| 20260906022333 | 67 | 275 | 0.0 | 1.0 | 0.00 | 0.00 | 0.00 | 69 | 1019.4 |
| 20260906021832 | 67 | 275 | 1.0 | 1.0 | 0.00 | 0.00 | 0.00 | 69 | 1019.4 |
| 20260906021331 | 67 | 275 | 0.0 | 1.0 | 0.00 | 0.00 | 0.00 | 69 | 1019.5 |
| 20260906020833 | 67 | 275 | 1.0 | 1.0 | 0.00 | 0.00 | 0.00 | 68 | 1019.5 |
| 20260906020330 | 67 | 275 | 0.0 | 1.0 | 0.00 | 0.00 | 0.00 | 68 | 1019.5 |
| 20260906020147 | 67 | 275 | 1.0 | 1.0 | 0.00 | 0.00 | 0.00 | 69 | 1019.6 |
| 20260906015504 | 67 | 272 | 0.0 | 1.0 | 0.00 | 0.00 | 0.00 | 68 | 1019.5 |
| 20260906015433 | 67 | 274 | 0.0 | 1.0 | 0.00 | 0.00 | 0.00 | 68 | 1019.6 |
| 20260906014330 | 67 | 272 | 0.0 | 1.0 | 0.00 | 0.00 | 0.00 | 68 | 1019.6 |
| 20260906013830 | 67 | 272 | 0.0 | 1.0 | 0.00 | 0.00 | 0.00 | 68 | 1019.6 |
| 20260906013332 | 67 | 272 | 0.0 | 1.0 | 0.00 | 0.00 | 0.00 | 66 | 1019.7 |
| 20260906012830 | 68 | 272 | 0.0 | 2.0 | 0.00 | 0.00 | 0.00 | 65 | 1019.7 |
| 20260906012330 | 68 | 272 | 0.0 | 2.0 | 0.00 | 0.00 | 0.00 | 64 | 1019.7 |
| 20260906011829 | 68 | 274 | 2.0 | 2.0 | 0.00 | 0.00 | 0.00 | 63 | 1019.7 |
| 20260906011330 | 69 | 285 | 2.0 | 2.0 | 0.00 | 0.00 | 0.00 | 62 | 1019.7 |
| 20260906010828 | 69 | 283 | 1.0 | 2.0 | 0.00 | 0.00 | 0.00 | 62 | 1019.7 |
| 20260906010646 | 68 | 283 | 1.0 | 2.0 | 0.00 | 0.00 | 0.00 | 64 | 1019.8 |
| 20260906005829 | 68 | 285 | 2.0 | 2.0 | 0.00 | 0.00 | 0.00 | 65 | 1019.8 |
| 20260906005329 | 67 | 283 | 1.0 | 2.0 | 0.00 | 0.00 | 0.00 | 65 | 1019.9 |
| 20260906004828 | 67 | 283 | 1.0 | 2.0 | 0.00 | 0.00 | 0.00 | 64 | 1019.9 |
| 20260906004328 | 67 | 285 | 2.0 | 2.0 | 0.00 | 0.00 | 0.00 | 63 | 1020.0 |
| 20260906003829 | 68 | 285 | 2.0 | 2.0 | 0.00 | 0.00 | 0.00 | 63 | 1019.9 |
| 20260906003638 | 68 | 283 | 1.0 | 1.0 | 0.00 | 0.00 | 0.00 | 63 | 1019.9 |
| 20260906002830 | 68 | 283 | 1.0 | 1.0 | 0.00 | 0.00 | 0.00 | 61 | 1019.9 |
| 20260906002328 | 69 | 283 | 1.0 | 1.0 | 0.00 | 0.00 | 0.00 | 60 | 1020.0 |
| 20260906001830 | 69 | 283 | 1.0 | 1.0 | 0.00 | 0.00 | 0.00 | 58 | 1020.0 |
| 20260906001340 | 69 | 283 | 1.0 | 1.0 | 0.00 | 0.00 | 0.00 | 58 | 1019.9 |
| 20260906000828 | 69 | 283 | 1.0 | 1.0 | 0.00 | 0.00 | 0.00 | 57 | 1019.9 |
| 20260906000636 | 69 | 283 | 0.0 | 1.0 | 0.00 | 0.00 | 0.00 | 57 | 1020.0 |
| 20260905235828 | 69 | 283 | 0.0 | 1.0 | 0.00 | 0.00 | 0.00 | 57 | 1020.0 |
| 20260905235329 | 69 | 283 | 1.0 | 1.0 | 0.00 | 0.00 | 0.00 | 59 | 1019.9 |
| 20260905234830 | 69 | 283 | 1.0 | 2.0 | 0.00 | 0.00 | 0.00 | 60 | 1019.9 |
| 20260905234328 | 69 | 285 | 1.0 | 2.0 | 0.00 | 0.00 | 0.00 | 62 | 1020.0 |
| 20260905234137 | 69 | 285 | 1.0 | 1.0 | 0.00 | 0.00 | 0.00 | 61 | 1019.9 |
| 20260905233327 | 69 | 285 | 1.0 | 2.0 | 0.00 | 0.00 | 0.00 | 59 | 1019.9 |
| 20260905232827 | 69 | 285 | 2.0 | 2.0 | 0.00 | 0.00 | 0.00 | 59 | 1020.0 |
| 20260905232635 | 70 | 285 | 2.0 | 2.0 | 0.00 | 0.00 | 0.00 | 61 | 1020.0 |
| 20260905231828 | 70 | 285 | 2.0 | 2.0 | 0.00 | 0.00 | 0.00 | 59 | 1019.9 |
| 20260905231327 | 70 | 285 | 1.0 | 2.0 | 0.00 | 0.00 | 0.00 | 58 | 1020.0 |
| 20260905230827 | 70 | 285 | 1.0 | 2.0 | 0.00 | 0.00 | 0.00 | 59 | 1019.9 |
| 20260905230328 | 70 | 285 | 2.0 | 2.0 | 0.00 | 0.00 | 0.00 | 59 | 1020.0 |
| 20260905225830 | 71 | 285 | 1.0 | 2.0 | 0.00 | 0.00 | 0.00 | 58 | 1019.9 |
| 20260905225326 | 71 | 285 | 1.0 | 2.0 | 0.00 | 0.00 | 0.00 | 57 | 1020.0 |
| 20260905225133 | 71 | 285 | 1.0 | 2.0 | 0.00 | 0.00 | 0.00 | 58 | 1019.9 |
| 20260905225128 | 71 | 285 | 1.0 | 2.0 | 0.00 | 0.00 | 0.00 | 58 | 1020.0 |
| 20260905225028 | 71 | 285 | 1.0 | 2.0 | 0.00 | 0.00 | 0.00 | 58 | 1020.0 |
| 20260905223326 | 71 | 285 | 1.0 | 2.0 | 0.00 | 0.00 | 0.00 | 57 | 1020.0 |
| 20260905222829 | 71 | 285 | 1.0 | 2.0 | 0.00 | 0.00 | 0.00 | 58 | 1020.0 |
| 20260905222327 | 71 | 285 | 1.0 | 2.0 | 0.00 | 0.00 | 0.00 | 58 | 1020.2 |
| 20260905221826 | 71 | 285 | 1.0 | 2.0 | 0.00 | 0.00 | 0.00 | 58 | 1020.2 |
| 20260905221328 | 71 | 285 | 2.0 | 2.0 | 0.00 | 0.00 | 0.00 | 57 | 1020.3 |
| 20260905220825 | 72 | 285 | 2.0 | 2.0 | 0.00 | 0.00 | 0.00 | 56 | 1020.3 |
| 20260905220326 | 73 | 285 | 1.0 | 2.0 | 0.00 | 0.00 | 0.00 | 56 | 1020.3 |
| 20260905215827 | 72 | 285 | 2.0 | 2.0 | 0.00 | 0.00 | 0.00 | 54 | 1020.2 |
| 20260905215633 | 73 | 285 | 1.0 | 2.0 | 0.00 | 0.00 | 0.00 | 54 | 1020.3 |
| 20260905215135 | 73 | 285 | 1.0 | 2.0 | 0.00 | 0.00 | 0.00 | 54 | 1020.3 |
| 20260905214324 | 72 | 285 | 2.0 | 2.0 | 0.00 | 0.00 | 0.00 | 54 | 1020.4 |
| 20260905213825 | 72 | 285 | 2.0 | 2.0 | 0.00 | 0.00 | 0.00 | 55 | 1020.5 |
| 20260905213327 | 72 | 285 | 1.0 | 2.0 | 0.00 | 0.00 | 0.00 | 54 | 1020.5 |
| 20260905212826 | 72 | 285 | 2.0 | 2.0 | 0.00 | 0.00 | 0.00 | 53 | 1020.5 |
| 20260905212627 | 72 | 282 | 1.0 | 2.0 | 0.00 | 0.00 | 0.00 | 53 | 1020.5 |
| 20260905211825 | 72 | 282 | 2.0 | 2.0 | 0.00 | 0.00 | 0.00 | 53 | 1020.5 |
| 20260905211323 | 72 | 282 | 2.0 | 2.0 | 0.00 | 0.00 | 0.00 | 53 | 1020.5 |
| 20260905210824 | 73 | 281 | 2.0 | 2.0 | 0.00 | 0.00 | 0.00 | 52 | 1020.6 |
| 20260905210635 | 73 | 279 | 1.0 | 2.0 | 0.00 | 0.00 | 0.00 | 51 | 1020.5 |
| 20260905205825 | 74 | 279 | 1.0 | 1.0 | 0.00 | 0.00 | 0.00 | 49 | 1020.5 |
| 20260905205324 | 74 | 279 | 1.0 | 1.0 | 0.00 | 0.00 | 0.00 | 48 | 1020.5 |
| 20260905204824 | 74 | 279 | 0.0 | 1.0 | 0.00 | 0.00 | 0.00 | 49 | 1020.6 |
| 20260905204325 | 74 | 279 | 1.0 | 1.0 | 0.00 | 0.00 | 0.00 | 49 | 1020.6 |
| 20260905203824 | 74 | 279 | 1.0 | 1.0 | 0.00 | 0.00 | 0.00 | 49 | 1020.6 |
| 20260905203322 | 74 | 279 | 1.0 | 2.0 | 0.00 | 0.00 | 0.00 | 49 | 1020.7 |
| 20260905202826 | 74 | 279 | 1.0 | 2.0 | 0.00 | 0.00 | 0.00 | 49 | 1020.8 |
| 20260905202322 | 75 | 279 | 1.0 | 1.0 | 0.00 | 0.00 | 0.00 | 49 | 1020.8 |
| 20260905202133 | 76 | 269 | 1.0 | 1.0 | 0.00 | 0.00 | 0.00 | 47 | 1020.7 |
| 20260905201322 | 76 | 269 | 1.0 | 1.0 | 0.00 | 0.00 | 0.00 | 45 | 1020.7 |
| 20260905200828 | 76 | 92 | 1.0 | 1.0 | 0.00 | 0.00 | 0.00 | 44 | 1020.7 |
| 20260905200322 | 77 | 92 | 0.0 | 1.0 | 0.00 | 0.00 | 0.00 | 43 | 1020.6 |
| 20260905195955 | 78 | 92 | 0.0 | 1.0 | 0.00 | 0.00 | 0.00 | 41 | 1020.7 |
| 20260905195918 | 77 | 92 | 1.0 | 1.0 | 0.00 | 0.00 | 0.00 | 42 | 1020.6 |
| 20260905194824 | 79 | 92 | 0.0 | 1.0 | 0.00 | 0.00 | 0.00 | 41 | 1020.7 |
| 20260905194634 | 79 | 92 | 0.0 | 1.0 | 0.00 | 0.00 | 0.00 | 40 | 1020.7 |
| 20260905194138 | 79 | 92 | 0.0 | 1.0 | 0.00 | 0.00 | 0.00 | 39 | 1020.6 |
| 20260905193634 | 80 | 92 | 0.0 | 1.0 | 0.00 | 0.00 | 0.00 | 39 | 1020.8 |
| 20260905193131 | 80 | 92 | 0.0 | 0.0 | 0.00 | 0.00 | 0.00 | 38 | 1020.6 |
| 20260905192323 | 80 | 92 | 0.0 | 0.0 | 0.00 | 0.00 | 0.00 | 38 | 1020.6 |
| 20260905191821 | 81 | 92 | 0.0 | 0.0 | 0.00 | 0.00 | 0.00 | 38 | 1020.6 |
| 20260905191322 | 81 | 92 | 0.0 | 0.0 | 0.00 | 0.00 | 0.00 | 38 | 1020.5 |
| 20260905190821 | 81 | 92 | 0.0 | 0.0 | 0.00 | 0.00 | 0.00 | 38 | 1020.5 |
| 20260905190321 | 82 | 92 | 0.0 | 0.0 | 0.00 | 0.00 | 0.00 | 38 | 1020.5 |
| 20260905185821 | 82 | 92 | 0.0 | 0.0 | 0.00 | 0.00 | 0.00 | 37 | 1020.5 |
| 20260905185320 | 82 | 92 | 0.0 | 0.0 | 0.00 | 0.00 | 0.00 | 37 | 1020.6 |
| 20260905184821 | 82 | 92 | 0.0 | 1.0 | 0.00 | 0.00 | 0.00 | 37 | 1020.7 |
| 20260905184323 | 82 | 92 | 0.0 | 1.0 | 0.00 | 0.00 | 0.00 | 37 | 1020.6 |
| 20260905183821 | 83 | 92 | 0.0 | 0.0 | 0.00 | 0.00 | 0.00 | 36 | 1020.6 |
| 20260905183321 | 83 | 92 | 0.0 | 0.0 | 0.00 | 0.00 | 0.00 | 36 | 1020.7 |
| 20260905182824 | 83 | 92 | 0.0 | 0.0 | 0.00 | 0.00 | 0.00 | 35 | 1020.7 |
| 20260905182320 | 84 | 92 | 0.0 | 1.0 | 0.00 | 0.00 | 0.00 | 35 | 1020.7 |
| 20260905181819 | 84 | 92 | 0.0 | 1.0 | 0.00 | 0.00 | 0.00 | 34 | 1020.7 |
| 20260905181631 | 84 | 92 | 0.0 | 1.0 | 0.00 | 0.00 | 0.00 | 34 | 1020.7 |